Date String (YYYY-MM-DD hh:mm:ss) UTC,Instrument flags,Ambient pressure (hPa),Sample flow (lpm),Bypass flow (lpm),Sample temperature (°C),Ambient temperature (°C),ASC tube jacket temperature (°C),LED temperature (°C),Box temperature (°C),Sample RH (%),Span deviation,Mass concentration (μg/m³),Mass concentration (μg/m³),Mass concentration (μg/m³)
DateTimeUTC,F1_M11,P_M11,Q1_M11,Q2_M11,T1_M11,T2_M11,T3_M11,T4_M11,T5_M11,U1_M11,ZSPAN_M11,X0_M11,X2_M11,X1_M11
2021-09-30 09:00:00,,0833.0,5.00,0.00,28.0,27.2,00.0,37.2,29.8,20.8,0000.0,0007.42,0004.16,0003.66
2021-09-30 09:01:00,,0833.0,4.99,0.00,28.0,27.2,00.0,37.2,29.8,20.9,0000.0,0007.31,0004.13,0003.66
2021-09-30 09:02:00,,0833.0,5.00,0.00,28.0,27.2,00.0,37.2,29.8,20.8,0000.0,0007.30,0004.14,0003.65
2021-09-30 09:03:00,,0833.1,5.00,0.00,28.0,27.2,00.0,37.2,29.8,20.8,0000.0,0006.68,0004.15,0003.65
2021-09-30 09:04:00,,0833.0,4.99,0.00,28.0,27.2,00.0,37.1,29.8,20.7,0000.0,0007.16,0004.14,0003.65
2021-09-30 09:05:00,,0833.0,5.00,0.00,28.0,27.2,00.0,37.1,29.8,20.7,0000.0,0007.37,0004.13,0003.64
2021-09-30 09:06:00,,0833.0,5.01,0.00,28.0,27.2,00.0,37.1,29.8,20.8,0000.0,0007.31,0004.14,0003.65
2021-09-30 09:07:00,,0833.1,5.01,0.00,28.0,27.2,00.0,37.1,29.8,20.8,0000.0,0007.37,0004.15,0003.65
2021-09-30 09:08:00,,0833.1,4.99,0.00,28.0,27.2,00.0,37.1,29.8,20.8,0000.0,0007.76,0004.14,0003.65
2021-09-30 09:09:00,,0833.1,5.01,0.00,28.0,27.2,00.0,37.1,29.7,20.8,0000.0,0007.92,0004.16,0003.66
2021-09-30 09:10:00,,0833.1,5.01,0.00,28.0,27.2,00.0,37.1,29.7,20.8,0000.0,0007.88,0004.13,0003.66
2021-09-30 09:11:00,,0833.1,4.99,0.00,27.9,27.2,00.0,37.1,29.7,20.8,0000.0,0007.85,0004.11,0003.67
2021-09-30 09:12:00,,0833.1,5.01,0.00,27.9,27.2,00.0,37.1,29.7,20.9,0000.0,0007.90,0004.16,0003.69
2021-09-30 09:13:00,,0833.0,5.00,0.00,27.9,27.2,00.0,37.1,29.7,20.8,0000.0,0007.84,0004.14,0003.70
2021-09-30 09:14:00,,0833.1,5.00,0.00,27.9,27.2,00.0,37.1,29.7,20.9,0000.0,0007.82,0004.10,0003.70
2021-09-30 09:15:00,,0833.1,5.01,0.00,27.9,27.1,00.0,37.1,29.7,20.9,0000.0,0007.49,0004.11,0003.72
2021-09-30 09:16:00,,0833.1,4.98,0.00,27.9,27.2,00.0,37.1,29.7,20.9,0000.0,0007.45,0004.13,0003.74
2021-09-30 09:17:00,,0833.1,5.00,0.00,27.9,27.1,00.0,37.1,29.7,20.9,0000.0,0007.53,0004.17,0003.76
2021-09-30 09:18:00,,0833.1,5.00,0.00,27.9,27.1,00.0,37.0,29.7,21.0,0000.0,0007.97,0004.18,0003.77
2021-09-30 09:19:00,,0833.1,4.99,0.00,27.9,27.1,00.0,37.0,29.7,21.0,0000.0,0007.98,0004.23,0003.78
2021-09-30 09:20:00,,0833.1,5.00,0.00,27.9,27.1,00.0,37.0,29.7,21.0,0000.0,0007.79,0004.23,0003.79
2021-09-30 09:21:00,,0833.1,5.00,0.00,27.9,27.1,00.0,37.0,29.6,21.0,0000.0,0007.88,0004.28,0003.80
2021-09-30 09:22:00,,0833.1,5.01,0.00,27.9,27.1,00.0,37.0,29.6,21.0,0000.0,0008.03,0004.35,0003.81
2021-09-30 09:23:00,,0833.1,4.99,0.00,27.8,27.1,00.0,37.0,29.6,21.1,0000.0,0008.02,0004.35,0003.82
2021-09-30 09:24:00,,0833.1,5.00,0.00,27.8,27.1,00.0,37.0,29.6,21.0,0000.0,0008.05,0004.35,0003.83
2021-09-30 09:25:00,,0833.1,5.01,0.00,27.8,27.1,00.0,37.0,29.6,21.1,0000.0,0008.12,0004.39,0003.83
2021-09-30 09:26:00,,0833.1,5.00,0.00,27.8,27.0,00.0,37.0,29.6,21.0,0000.0,0008.21,0004.43,0003.84
2021-09-30 09:27:00,,0833.0,5.00,0.00,27.8,27.0,00.0,37.0,29.6,21.1,0000.0,0008.23,0004.46,0003.85
2021-09-30 09:28:00,,0833.1,5.01,0.00,27.8,27.0,00.0,37.0,29.6,21.1,0000.0,0008.23,0004.47,0003.85
2021-09-30 09:29:00,,0833.1,5.00,0.00,27.8,27.0,00.0,37.0,29.5,21.0,0000.0,0007.88,0004.50,0003.85
2021-09-30 09:30:00,,0833.0,5.01,0.00,27.8,27.0,00.0,36.9,29.5,21.2,0000.0,0007.91,0004.50,0003.86
2021-09-30 09:31:00,,0833.0,5.00,0.00,27.8,27.0,00.0,36.9,29.5,21.1,0000.0,0008.38,0004.55,0003.87
2021-09-30 09:32:00,,0833.1,5.00,0.00,27.8,27.0,00.0,36.9,29.6,21.2,0000.0,0008.70,0004.52,0003.88
2021-09-30 09:33:00,,0833.1,5.00,0.00,27.8,27.0,00.0,36.9,29.6,21.2,0000.0,0009.06,0004.46,0003.88
2021-09-30 09:34:00,,0833.0,5.00,0.00,27.7,27.0,00.0,36.9,29.6,21.3,0000.0,0009.12,0004.45,0003.87
2021-09-30 09:35:00,,0833.0,4.99,0.00,27.7,27.0,00.0,36.9,29.5,21.2,0000.0,0009.25,0004.45,0003.86
2021-09-30 09:36:00,,0833.0,4.99,0.00,27.7,27.0,00.0,36.9,29.5,21.1,0000.0,0009.50,0004.44,0003.87
2021-09-30 09:37:00,,0833.0,5.00,0.00,27.7,26.9,00.0,36.9,29.5,21.1,0000.0,0009.43,0004.41,0003.87
2021-09-30 09:38:00,,0833.0,5.01,0.00,27.7,26.9,00.0,36.9,29.5,21.1,0000.0,0009.34,0004.37,0003.87
2021-09-30 09:39:00,,0832.9,5.00,0.00,27.7,26.9,00.0,36.9,29.4,21.2,0000.0,0009.36,0004.39,0003.87
2021-09-30 09:40:00,,0832.8,5.01,0.00,27.7,26.9,00.0,36.9,29.4,21.2,0000.0,0009.40,0004.38,0003.88
2021-09-30 09:41:00,,0832.9,5.00,0.00,27.7,26.8,00.0,36.9,29.4,21.4,0000.0,0009.52,0004.40,0003.87
2021-09-30 09:42:00,,0832.8,4.99,0.00,27.7,26.8,00.0,36.8,29.4,21.4,0000.0,0009.05,0004.37,0003.87
2021-09-30 09:43:00,,0832.8,4.99,0.00,27.7,26.8,00.0,36.8,29.4,21.9,0000.0,0008.76,0004.37,0003.87
2021-09-30 09:44:00,,0832.8,5.01,0.00,27.6,26.8,00.0,36.8,29.4,22.3,0000.0,0008.44,0004.42,0003.87
2021-09-30 09:45:00,,0832.8,5.00,0.00,27.6,26.7,00.0,36.8,29.4,21.7,0000.0,0008.91,0004.45,0003.88
2021-09-30 09:46:00,,0832.8,5.00,0.00,27.6,26.7,00.0,36.8,29.3,21.6,0000.0,0008.97,0004.45,0003.89
2021-09-30 09:47:00,,0832.9,5.00,0.00,27.6,26.7,00.0,36.8,29.3,21.7,0000.0,0009.24,0004.48,0003.89
2021-09-30 09:48:00,,0832.8,5.01,0.00,27.5,26.7,00.0,36.8,29.2,21.7,0000.0,0009.31,0004.51,0003.90
2021-09-30 09:49:00,,0832.9,4.99,0.00,27.5,26.7,00.0,36.8,29.2,21.8,0000.0,0010.18,0004.51,0003.90
2021-09-30 09:50:00,,0832.9,5.00,0.00,27.5,26.7,00.0,36.7,29.2,21.8,0000.0,0011.35,0004.47,0003.90
2021-09-30 09:51:00,,0832.9,5.01,0.00,27.5,26.7,00.0,36.7,29.2,21.9,0000.0,0011.95,0004.46,0003.90
2021-09-30 09:52:00,,0832.9,4.98,0.00,27.5,26.7,00.0,36.7,29.2,22.1,0000.0,0011.55,0004.40,0003.90
2021-09-30 09:53:00,,0832.8,5.00,0.00,27.4,26.7,00.0,36.7,29.2,22.2,0000.0,0011.53,0004.41,0003.91
2021-09-30 09:54:00,,0832.8,5.00,0.00,27.4,26.6,00.0,36.7,29.2,22.2,0000.0,0011.50,0004.39,0003.91
2021-09-30 09:55:00,,0832.8,5.00,0.00,27.4,26.6,00.0,36.7,29.2,22.3,0000.0,0011.25,0004.38,0003.91
2021-09-30 09:56:00,,0832.8,4.99,0.00,27.4,26.6,00.0,36.7,29.2,22.4,0000.0,0010.96,0004.36,0003.92
2021-09-30 09:57:00,,0832.8,4.99,0.00,27.4,26.6,00.0,36.6,29.1,22.5,0000.0,0010.95,0004.38,0003.92
2021-09-30 09:58:00,,0832.7,5.01,0.00,27.4,26.6,00.0,36.6,29.1,22.6,0000.0,0010.86,0004.39,0003.93
2021-09-30 09:59:00,,0832.7,5.00,0.00,27.3,26.5,00.0,36.6,29.0,22.6,0000.0,0010.74,0004.39,0003.94
